Location: Starlight Observatory
(38.4029°N, 85.8936°W)
Time: 13:04:50
(UTC-05:00)

Amateur Radio Satellites - All Passes

Search period start: 01 March 2017 12:34
Search period end: 02 March 2017 12:34
Location: Starlight Observatory, 38.4029°N, 85.8936°W

Satellite Date Start Highest point End Downlink Frequencies (MHz)
Time Altitude Azimuth
BUGSAT 1 01 Mar 12:36:30 12:40:34 79° 258° (WSW) 12:44:42 437.445
UKube-1 01 Mar 12:36:38 12:38:22 12° 92° (E) 12:40:06 .
QB50P2 01 Mar 12:37:36 12:40:43 20° 266° (W) 12:43:52 145.880/145.840
Gurwin Techsat 1B 01 Mar 12:42:09 12:45:52 20° 64° (ENE) 12:49:37 435.225
Tancredo 1 01 Mar 12:46:18 12:49:09 28° 30° (NNE) 12:52:00 437.200
ESTCUBE 1 01 Mar 12:49:58 12:54:09 40° 288° (WNW) 12:58:19 437.505/2401.250
VELOX 1 01 Mar 12:55:08 12:59:33 72° 101° (E) 13:03:58 145.980
Oscar 19 01 Mar 12:58:29 13:03:25 49° 72° (ENE) 13:08:22 437.125/150
AO-85 01 Mar 13:08:15 13:12:06 59° 242° (WSW) 13:16:03 145.980
50 SAT 01 Mar 13:11:52 13:15:21 86° 105° (ESE) 13:18:48 437.505
BEESAT 3 01 Mar 13:12:29 13:13:32 11° 42° (NE) 13:14:35 437.485
YUBILEINY 01 Mar 13:22:28 13:23:42 10° 303° (WNW) 13:24:55 435.215
ITAMSAT 1 01 Mar 13:45:09 13:47:38 14° 61° (ENE) 13:50:09 435.822/435.867
BEESAT 2 01 Mar 14:00:03 14:02:14 14° 45° (NE) 14:04:23 435.950
SPROUT 01 Mar 14:05:31 14:08:51 22° 292° (WNW) 14:12:10 437.525
DX 1 01 Mar 14:07:52 14:11:57 40° 288° (WNW) 14:16:02 434.975-435.025
ISS 01 Mar 14:08:21 14:11:31 45° 224° (SW) 14:14:39 437.550
UKube-1 01 Mar 14:10:28 14:14:41 53° 287° (WNW) 14:18:53 .
Gurwin Techsat 1B 01 Mar 14:20:15 14:25:24 51° 260° (W) 14:30:35 435.225
Tancredo 1 01 Mar 14:22:32 14:25:23 29° 227° (SW) 14:28:12 437.200
ITUPSAT 1 01 Mar 14:27:23 14:29:55 14° 92° (E) 14:32:25 437.325
BEESAT 01 Mar 14:30:31 14:33:23 16° 93° (E) 14:36:14 436.000
AO-7 01 Mar 14:30:51 14:38:35 44° 63° (ENE) 14:46:19 .
VELOX 1 01 Mar 14:34:32 14:35:23 10° 298° (WNW) 14:36:13 145.980
Oscar 19 01 Mar 14:39:31 14:42:58 18° 267° (W) 14:46:28 437.125/150
BEESAT 3 01 Mar 14:47:40 14:51:42 84° 237° (WSW) 14:55:41 437.485
NO-84 01 Mar 14:52:53 14:54:33 14° 123° (ESE) 14:56:16 435.350 FM
ITAMSAT 1 01 Mar 15:21:14 15:26:25 75° 256° (WSW) 15:31:40 435.822/435.867
PCSat 01 Mar 15:33:47 15:39:08 67° 114° (ESE) 15:44:32 145.827
BEESAT 2 01 Mar 15:36:22 15:40:22 61° 243° (WSW) 15:44:20 435.950
RS-15 01 Mar 15:38:54 15:48:14 28° 101° (ESE) 15:57:48 29.354- 29.394
MOZHAYETS 4 01 Mar 15:46:04 15:50:18 36° 97° (E) 15:54:31
ITUPSAT 1 01 Mar 16:03:22 16:08:03 55° 287° (WNW) 16:12:42 437.325
BEESAT 01 Mar 16:06:47 16:11:25 49° 288° (WNW) 16:15:59 436.000
AO-7 01 Mar 16:23:33 16:31:17 41° 260° (W) 16:39:04 .
NO-84 01 Mar 16:28:51 16:31:47 39° 321° (NW) 16:34:59 435.350 FM
CUBESAT XI-V 01 Mar 16:58:10 17:02:19 33° 97° (E) 17:06:27 437.345
KAITUO 1B 01 Mar 17:04:58 17:05:36 10° 65° (ENE) 17:06:15 145.475/437.950
CUTE-I 01 Mar 17:05:05 17:08:50 20° 64° (ENE) 17:12:37 437.470
XW-2F 01 Mar 17:15:41 17:18:15 17° 68° (ENE) 17:20:49 145.980 - 146.000
KKS-1 01 Mar 17:18:53 17:23:23 90° 155° (SSE) 17:27:52 437.445
PCSat 01 Mar 17:19:15 17:23:02 19° 313° (NW) 17:26:49 145.827
XW-2D 01 Mar 17:22:48 17:25:49 22° 70° (ENE) 17:28:51 145.860 - 145.880
MOZHAYETS 4 01 Mar 17:23:50 17:27:12 21° 293° (WNW) 17:30:34
XW-2B 01 Mar 17:27:49 17:30:59 25° 70° (ENE) 17:34:09 145.730 - 145.750
NUDT-PHONESAT 01 Mar 17:31:27 17:34:24 22° 70° (ENE) 17:37:21 437.300
XW-2C 01 Mar 17:36:21 17:39:47 31° 72° (ENE) 17:43:14 145.795 - 145.815
STARS 01 Mar 17:39:29 17:43:55 66° 102° (ESE) 17:48:19 437.465
RS-15 01 Mar 17:47:27 17:59:23 78° 302° (WNW) 18:11:50 29.354- 29.394
HO-68 01 Mar 17:50:22 17:54:46 18° 56° (ENE) 17:59:10 435.675
LilacSat-2 01 Mar 17:57:57 18:01:47 64° 76° (ENE) 18:05:39 437.200
M-CUBED/EXP-1 PRIME 01 Mar 18:05:17 18:09:07 46° 105° (ESE) 18:13:15 437.505
DOVE 4 01 Mar 18:19:10 18:23:16 66° 260° (W) 18:27:28 437.250
CUTE 1.7 + AOD 2 01 Mar 18:32:22 18:35:07 17° 67° (ENE) 18:37:53 437.475
KAITUO 1B 01 Mar 18:35:26 18:39:08 52° 260° (W) 18:42:53 145.475/437.950
CUBESAT XI-V 01 Mar 18:35:57 18:39:29 22° 292° (WNW) 18:43:01 437.345
CUTE-I 01 Mar 18:43:17 18:48:27 51° 260° (W) 18:53:41 437.470
XW-2F 01 Mar 18:48:46 18:52:09 30° 263° (W) 18:55:34 145.980 - 146.000
XW-2D 01 Mar 18:56:49 18:59:54 23° 265° (W) 19:03:00 145.860 - 145.880
XW-2A 01 Mar 19:00:39 19:03:56 48° 75° (ENE) 19:07:16 145.665 - 145.685
XW-2B 01 Mar 19:02:12 19:05:06 20° 265° (W) 19:08:02 145.730 - 145.750
NUDT-PHONESAT 01 Mar 19:05:14 19:08:13 22° 265° (W) 19:11:13 437.300
XW-2C 01 Mar 19:11:39 19:14:03 16° 267° (W) 19:16:28 145.795 - 145.815
STARS 01 Mar 19:18:12 19:19:40 11° 297° (WNW) 19:21:08 437.465
SEEDS 01 Mar 19:19:03 19:22:55 36° 72° (ENE) 19:26:47 437.485
STRAND 1 01 Mar 19:19:54 19:24:09 26° 95° (E) 19:28:21 437.568
AO-73 01 Mar 19:29:11 19:30:32 11° 63° (ENE) 19:31:53 145.935
HO-68 01 Mar 19:34:22 19:41:33 87° 254° (WSW) 19:48:46 435.675
YUBILEINY 01 Mar 19:36:20 19:38:04 11° 58° (ENE) 19:39:47 435.215
CUBEBUG 2 01 Mar 19:39:34 19:43:48 43° 72° (ENE) 19:48:12 437.445
M-CUBED/EXP-1 PRIME 01 Mar 19:41:03 19:43:17 15° 297° (WNW) 19:45:36 437.505
RS-15 01 Mar 20:04:19 20:14:17 28° 329° (NNW) 20:24:29 29.354- 29.394
UWE-3 01 Mar 20:06:25 20:10:47 53° 74° (ENE) 20:15:17 435.000/436.395/437.385
CUTE 1.7 + AOD 2 01 Mar 20:06:39 20:10:38 38° 262° (W) 20:14:39 437.475
ZACube-1 01 Mar 20:16:27 20:20:38 39° 72° (ENE) 20:24:54 437.345
JUGNU 01 Mar 20:21:25 20:22:51 11° 174° (S) 20:24:17 437.505
AAUSAT CUBESAT 2 01 Mar 20:28:45 20:32:53 69° 259° (WSW) 20:37:01 437.432
SEEDS 01 Mar 20:55:57 20:58:42 17° 267° (W) 21:01:28 437.485
STRAND 1 01 Mar 20:58:42 21:03:20 35° 291° (WNW) 21:07:58 437.568
AO-73 01 Mar 21:01:39 21:06:06 71° 259° (W) 21:10:40 145.935
Oscar 11 01 Mar 21:02:13 21:06:35 79° 259° (W) 21:10:57 .
DELFI C3 01 Mar 21:17:34 21:21:20 44° 74° (ENE) 21:25:05 145.870
CUBEBUG 2 01 Mar 21:17:46 21:20:38 17° 268° (W) 21:23:34 437.445
HO-68 01 Mar 21:26:49 21:30:07 14° 271° (W) 21:33:26 435.675
NO-84 01 Mar 21:26:55 21:28:55 13° 25° (NNE) 21:30:59 435.350 FM
YUBILEINY 01 Mar 21:28:10 21:36:49 63° 80° (E) 21:45:23 435.215
SO-50 01 Mar 21:37:59 21:42:41 89° 299° (WNW) 21:47:20 436.795
UWE-3 01 Mar 21:45:18 21:47:33 14° 270° (W) 21:49:50 435.000/436.395/437.385
FO-29 01 Mar 21:52:05 21:55:13 13° 84° (E) 21:58:14 435.910
ZACube-1 01 Mar 21:54:00 21:57:03 18° 268° (W) 22:00:09 437.345
LO-87 01 Mar 22:05:22 22:07:41 17° 69° (ENE) 22:10:01 145.935 - 145.965
JUGNU 01 Mar 22:09:17 22:10:55 11° 185° (S) 22:12:35 437.505
O/OREOS (USA 219) 01 Mar 22:09:56 22:14:21 67° 108° (ESE) 22:18:50 437.305
ESTCUBE 1 01 Mar 22:13:09 22:15:31 14° 64° (ENE) 22:17:53 437.505/2401.250
PRISM 01 Mar 22:21:07 22:25:13 90° 285° (WNW) 22:29:19 437.425
RS-15 01 Mar 22:24:56 22:32:57 19° 5° (N) 22:40:55 29.354- 29.394
TIGRISAT 01 Mar 22:26:14 22:30:37 39° 98° (E) 22:34:55 435.000
UNISAT 6 01 Mar 22:27:27 22:31:55 43° 98° (E) 22:36:18 437.425
DELFI C3 01 Mar 22:54:46 22:56:20 12° 268° (W) 22:57:53 145.870
NO-84 01 Mar 23:03:13 23:07:13 62° 42° (NE) 23:11:29 435.350 FM
SRMSAT 01 Mar 23:17:50 23:19:55 12° 176° (S) 23:22:01 437.500
SO-50 01 Mar 23:21:41 23:23:47 13° 319° (NW) 23:25:53 436.795
SPROUT 01 Mar 23:21:48 23:24:50 19° 67° (ENE) 23:27:52 437.525
YUBILEINY 01 Mar 23:26:11 23:32:51 26° 278° (W) 23:39:32 435.215
DX 1 01 Mar 23:28:08 23:29:57 12° 63° (ENE) 23:31:45 434.975-435.025
FO-29 01 Mar 23:33:56 23:41:25 86° 105° (ESE) 23:48:02 435.910
LO-87 01 Mar 23:37:59 23:40:56 25° 263° (W) 23:43:56 145.935 - 145.965
DUCHIFAT 1 01 Mar 23:44:10 23:47:16 19° 94° (E) 23:50:20 145.980
50 SAT 01 Mar 23:44:42 23:47:33 24° 71° (ENE) 23:50:25 437.505
ESTCUBE 1 01 Mar 23:47:26 23:51:50 53° 260° (W) 23:56:16 437.505/2401.250
VELOX 1 01 Mar 23:50:40 23:54:55 51° 73° (ENE) 23:59:10 145.980
O/OREOS (USA 219) 01 Mar 23:52:21 23:54:14 12° 306° (NW) 23:56:09 437.305
EO-79 02 Mar 00:00:20 00:04:18 36° 98° (E) 00:08:13 145.935-145.965
TIGRISAT 02 Mar 00:03:36 00:06:59 20° 294° (WNW) 00:10:19 435.000
UNISAT 6 02 Mar 00:05:05 00:08:15 18° 294° (WNW) 00:11:22 437.425
NANOSAT C BR1 02 Mar 00:13:55 00:18:03 47° 99° (E) 00:22:09 145.865
POLYITAN 1 02 Mar 00:19:17 00:23:33 61° 101° (E) 00:27:46 437.675
BUGSAT 1 02 Mar 00:20:40 00:23:27 17° 93° (E) 00:26:13 437.445
AIST 2D 02 Mar 00:22:18 00:25:46 56° 285° (WNW) 00:29:14 435.315
QB50P2 02 Mar 00:22:27 00:26:46 73° 102° (ESE) 00:31:01 145.880/145.840
PCSat 02 Mar 00:23:16 00:28:21 39° 55° (NE) 00:33:24 145.827
RS-15 02 Mar 00:39:36 00:50:45 37° 39° (NE) 01:01:30 29.354- 29.394
NO-84 02 Mar 00:41:56 00:44:37 17° 236° (SW) 00:47:23 435.350 FM
SPROUT 02 Mar 00:56:38 01:00:29 33° 263° (W) 01:04:23 437.525
DX 1 02 Mar 01:01:22 01:05:36 57° 259° (W) 01:09:53 434.975-435.025
UKube-1 02 Mar 01:02:56 01:07:13 79° 256° (WSW) 01:11:33 .
SRMSAT 02 Mar 01:06:36 01:08:11 11° 187° (S) 01:09:46 437.500
Oscar 19 02 Mar 01:12:24 01:15:59 19° 93° (E) 01:19:36 437.125/150
50 SAT 02 Mar 01:18:21 01:20:38 17° 265° (W) 01:22:56 437.505
DUCHIFAT 1 02 Mar 01:19:10 01:22:59 32° 289° (WNW) 01:26:45 145.980
FO-29 02 Mar 01:20:38 01:25:18 18° 303° (WNW) 01:29:43 435.910
VELOX 1 02 Mar 01:29:39 01:31:38 13° 268° (W) 01:33:37 145.980
ITUPSAT 1 02 Mar 01:32:55 01:35:41 15° 63° (ENE) 01:38:27 437.325
BEESAT 02 Mar 01:35:43 01:38:42 17° 64° (ENE) 01:41:42 436.000
EO-79 02 Mar 01:36:50 01:39:46 18° 293° (WNW) 01:42:42 145.935-145.965
NANOSAT C BR1 02 Mar 01:51:04 01:53:20 14° 295° (WNW) 01:55:36 145.865
BUGSAT 1 02 Mar 01:54:59 01:58:54 37° 288° (WNW) 02:02:49 437.445
POLYITAN 1 02 Mar 01:57:21 01:58:46 11° 297° (WNW) 02:00:12 437.675
PCSat 02 Mar 02:07:01 02:11:33 27° 252° (WSW) 02:16:03 145.827
AO-7 02 Mar 02:37:16 02:40:20 12° 89° (E) 02:43:22 .
Gurwin Techsat 1B 02 Mar 02:37:43 02:43:04 72° 102° (ESE) 02:48:22 435.225
MOZHAYETS 4 02 Mar 02:46:25 02:50:26 30° 70° (ENE) 02:54:28
Oscar 19 02 Mar 02:50:38 02:55:31 46° 288° (WNW) 03:00:24 437.125/150
RS-15 02 Mar 02:52:12 03:04:27 76° 244° (WSW) 03:16:06 29.354- 29.394
ITUPSAT 1 02 Mar 03:08:18 03:13:00 56° 259° (W) 03:17:46 437.325
BEESAT 02 Mar 03:11:24 03:16:02 51° 260° (W) 03:20:43 436.000
AO-85 02 Mar 03:20:35 03:25:08 62° 118° (ESE) 03:29:22 145.980
ITAMSAT 1 02 Mar 03:35:43 03:40:42 44° 99° (E) 03:45:39 435.822/435.867
CUBESAT XI-V 02 Mar 04:00:03 04:03:59 28° 70° (ENE) 04:07:55 437.345
KKS-1 02 Mar 04:15:07 04:19:30 68° 74° (ENE) 04:23:54 437.445
Gurwin Techsat 1B 02 Mar 04:19:36 04:22:21 14° 299° (WNW) 04:25:06 435.225
MOZHAYETS 4 02 Mar 04:23:44 04:27:32 25° 265° (W) 04:31:22
AO-7 02 Mar 04:25:57 04:34:18 76° 106° (ESE) 04:42:34 .
STARS 02 Mar 04:34:23 04:38:34 47° 73° (ENE) 04:42:48 437.465
BEESAT 3 02 Mar 04:36:50 04:39:50 22° 112° (ESE) 04:42:54 437.485
M-CUBED/EXP-1 PRIME 02 Mar 04:50:51 04:53:53 37° 68° (ENE) 04:56:57 437.505
AO-85 02 Mar 05:03:15 05:05:50 15° 314° (NW) 05:08:20 145.980
RS-15 02 Mar 05:08:24 05:14:37 16° 264° (W) 05:20:45 29.354- 29.394
ISS 02 Mar 05:12:51 05:14:03 12° 128° (SE) 05:15:15 437.550
ITAMSAT 1 02 Mar 05:15:53 05:19:50 22° 295° (WNW) 05:23:46 435.822/435.867
Tancredo 1 02 Mar 05:23:37 05:25:41 16° 130° (SE) 05:27:45 437.200
BEESAT 2 02 Mar 05:26:27 05:29:55 31° 114° (ESE) 05:33:28 435.950
CUBESAT XI-V 02 Mar 05:37:22 05:41:17 26° 264° (W) 05:45:11 437.345
KAITUO 1B 02 Mar 06:09:15 06:11:37 16° 93° (E) 06:13:57 145.475/437.950
SO-50 02 Mar 06:10:50 06:15:14 51° 55° (NE) 06:19:35 436.795
STARS 02 Mar 06:12:52 06:15:10 14° 268° (W) 06:17:27 437.465
BEESAT 3 02 Mar 06:13:51 06:17:16 29° 308° (NW) 06:20:46 437.485
DOVE 4 02 Mar 06:18:27 06:23:01 37° 98° (E) 06:27:46 437.250
AO-7 02 Mar 06:19:59 06:26:13 24° 305° (NW) 06:32:28 .
XW-2F 02 Mar 06:22:19 06:25:38 28° 97° (E) 06:28:54 145.980 - 146.000
XW-2D 02 Mar 06:30:09 06:33:43 38° 98° (E) 06:37:15 145.860 - 145.880
STRAND 1 02 Mar 06:34:12 06:38:43 32° 68° (ENE) 06:43:15 437.568
XW-2B 02 Mar 06:35:17 06:38:56 43° 99° (E) 06:42:32 145.730 - 145.750
NUDT-PHONESAT 02 Mar 06:36:36 06:40:04 35° 98° (E) 06:43:30 437.300
XW-2C 02 Mar 06:44:04 06:47:50 58° 100° (E) 06:51:34 145.795 - 145.815
O/OREOS (USA 219) 02 Mar 06:44:51 06:45:52 11° 53° (NE) 06:46:54 437.305
ISS 02 Mar 06:46:50 06:50:07 66° 323° (NW) 06:53:25 437.550
Tancredo 1 02 Mar 06:58:31 07:01:40 46° 325° (NW) 07:04:49 437.200
CUTE-I 02 Mar 07:01:35 07:06:59 73° 103° (ESE) 07:12:20 437.470
BEESAT 2 02 Mar 07:04:36 07:07:44 22° 311° (NW) 07:10:53 435.950
HO-68 02 Mar 07:05:19 07:10:07 19° 92° (E) 07:14:52 435.675
LilacSat-2 02 Mar 07:06:48 07:10:36 66° 284° (WNW) 07:14:21 437.200
CUBEBUG 2 02 Mar 07:34:25 07:35:40 11° 89° (E) 07:36:55 437.445
KAITUO 1B 02 Mar 07:42:24 07:45:40 29° 288° (WNW) 07:48:56 145.475/437.950
SO-50 02 Mar 07:52:39 07:55:14 15° 251° (WSW) 07:57:49 436.795
CUTE 1.7 + AOD 2 02 Mar 07:52:47 07:56:42 37° 98° (E) 08:00:36 437.475
XW-2A 02 Mar 07:56:34 08:00:01 66° 101° (E) 08:03:26 145.665 - 145.685
DOVE 4 02 Mar 07:56:38 08:00:28 24° 291° (WNW) 08:04:28 437.250
XW-2F 02 Mar 07:57:00 07:59:33 17° 292° (WNW) 08:02:05 145.980 - 146.000
UWE-3 02 Mar 07:59:31 08:01:31 13° 90° (E) 08:03:30 435.000/436.395/437.385
XW-2D 02 Mar 08:05:39 08:07:33 13° 293° (WNW) 08:09:27 145.860 - 145.880
XW-2B 02 Mar 08:11:10 08:12:42 12° 294° (WNW) 08:14:15 145.730 - 145.750
NUDT-PHONESAT 02 Mar 08:11:42 08:13:40 14° 293° (WNW) 08:15:37 437.300
AAUSAT CUBESAT 2 02 Mar 08:13:05 08:16:05 19° 94° (E) 08:19:04 437.432
STRAND 1 02 Mar 08:13:28 08:17:50 28° 264° (W) 08:22:16 437.568
O/OREOS (USA 219) 02 Mar 08:21:17 08:25:54 83° 250° (WSW) 08:30:29 437.305
ISS 02 Mar 08:25:19 08:27:08 14° 341° (NNW) 08:28:58 437.550
YUBILEINY 02 Mar 08:36:46 08:40:07 13° 75° (ENE) 08:43:27 435.215
Tancredo 1 02 Mar 08:37:17 08:38:33 12° 343° (NNW) 08:39:51 437.200
SEEDS 02 Mar 08:39:21 08:43:32 88° 90° (E) 08:47:42 437.485
CUTE-I 02 Mar 08:43:31 08:46:22 15° 299° (WNW) 08:49:12 437.470
HO-68 02 Mar 08:51:17 08:58:25 73° 288° (WNW) 09:05:31 435.675
Oscar 11 02 Mar 08:51:40 08:54:55 21° 94° (E) 08:58:09 .
AO-73 02 Mar 08:51:45 08:55:28 25° 95° (E) 08:59:04 145.935
CUBEBUG 2 02 Mar 09:08:00 09:12:44 69° 285° (WNW) 09:17:20 437.445
PRISM 02 Mar 09:08:40 09:12:36 50° 73° (ENE) 09:16:32 437.425
TIGRISAT 02 Mar 09:23:20 09:27:14 29° 69° (ENE) 09:31:12 435.000
UNISAT 6 02 Mar 09:24:37 09:28:39 32° 70° (ENE) 09:32:46 437.425
CUTE 1.7 + AOD 2 02 Mar 09:29:31 09:32:13 17° 293° (WNW) 09:34:55 437.475
UWE-3 02 Mar 09:33:46 09:38:20 57° 286° (WNW) 09:42:46 435.000/436.395/437.385
ZACube-1 02 Mar 09:42:06 09:46:38 79° 283° (WNW) 09:51:02 437.345
FO-29 02 Mar 09:42:53 09:49:30 37° 65° (ENE) 09:56:27 435.910
AAUSAT CUBESAT 2 02 Mar 09:47:59 09:51:33 29° 289° (WNW) 09:55:07 437.432
YUBILEINY 02 Mar 10:26:32 10:35:19 77° 94° (E) 10:44:05 435.215
Oscar 11 02 Mar 10:27:16 10:31:04 31° 289° (WNW) 10:34:50 .
AO-73 02 Mar 10:27:48 10:31:37 27° 291° (WNW) 10:35:20 145.935
DELFI C3 02 Mar 10:30:30 10:34:26 88° 274° (W) 10:38:21 145.870
DUCHIFAT 1 02 Mar 10:35:50 10:37:38 12° 64° (ENE) 10:39:25 145.980
HO-68 02 Mar 10:41:50 10:44:54 13° 307° (NW) 10:47:58 435.675
PRISM 02 Mar 10:46:52 10:48:09 11° 268° (W) 10:49:26 437.425
EO-79 02 Mar 10:51:35 10:54:53 23° 68° (ENE) 10:58:14 145.935-145.965
AIST 2D 02 Mar 10:55:04 10:58:20 36° 73° (ENE) 11:01:38 435.315
TIGRISAT 02 Mar 11:00:05 11:03:50 26° 265° (W) 11:07:42 435.000
UNISAT 6 02 Mar 11:01:46 11:05:22 23° 266° (W) 11:09:03 437.425
NANOSAT C BR1 02 Mar 11:04:34 11:08:12 29° 70° (ENE) 11:11:52 145.865
LO-87 02 Mar 11:06:09 11:09:11 25° 96° (E) 11:12:12 145.935 - 145.965
POLYITAN 1 02 Mar 11:10:12 11:14:06 36° 72° (ENE) 11:18:03 437.675
QB50P2 02 Mar 11:13:18 11:17:19 43° 72° (ENE) 11:21:22 145.880/145.840
FO-29 02 Mar 11:27:18 11:34:13 46° 263° (W) 11:41:40 435.910
ISS 02 Mar 11:40:23 11:42:29 16° 22° (NNE) 11:44:33 437.550
ESTCUBE 1 02 Mar 11:41:25 11:45:30 34° 97° (E) 11:49:34 437.505/2401.250
VELOX 1 02 Mar 11:44:43 11:45:44 11° 91° (E) 11:46:46 145.980
Tancredo 1 02 Mar 11:51:05 11:53:23 18° 24° (NNE) 11:55:41 437.200
AO-85 02 Mar 11:53:31 11:57:00 30° 53° (NE) 12:00:31 145.980
DUCHIFAT 1 02 Mar 12:08:41 12:12:48 54° 260° (W) 12:16:58 145.980
Gurwin Techsat 1B 02 Mar 12:21:18 12:23:23 12° 60° (ENE) 12:25:28 435.225
EO-79 02 Mar 12:26:52 12:30:30 28° 264° (W) 12:34:10 145.935-145.965
AIST 2D 02 Mar 12:30:25 12:31:43 12° 268° (W) 12:33:01 435.315
